Wind_Speed
3 3 8 12 8 4 1 2 6 5 5 2 6 6 10 5 3 6 10 12 12 12 13 22 25 24 21 17 15 15 13 11 9 11 11 16 19 16 18 19 18 17 18 18
2 9 13 8 7 7 7 9 8 5 4 1 6 7 8 5 6 8 13 12 14 12 13 17 23 21 18 19 17 17 16 13 12 11 11 11 8 14 15 15 17 17 17 18
9 7 6 10 10 8 7 7 4 6 4 2 3 8 5 5 4 6 13 20 18 20 17 12 16 22 20 17 18 18 16 14 13 12 11 12 10 13 17 18 16 18 18 19
10 15 18 12 9 9 13 8 5 2 3 3 3 9 4 5 9 6 9 17 17 16 13 10 16 18 20 19 18 18 15 14 13 12 14 16 17 14 15 14 15 18 19 22
9 3 8 14 12 7 8 5 4 4 4 1 4 1 1 5 7 6 8 13 15 15 15 14 17 23 22 22 19 18 17 15 13 13 14 14 17 15 13 14 16 18 20 22
8 4 3 4 2 3 3 5 5 4 3 4 7 7 13 5 5 2 7 14 17 15 15 13 18 23 23 23 20 17 17 15 12 13 13 14 14 14 15 16 18 18 19 21
8 16 13 6 6 1 2 6 1 2 1 8 7 7 11 9 10 8 16 19 19 16 13 14 13 16 23 23 20 18 14 13 11 12 13 13 14 14 16 17 17 18 19 21
6 7 13 8 17 8 8 8 6 6 4 4 5 5 3 1 10 6 8 11 10 10 12 13 15 18 22 23 20 16 14 13 11 10 11 11 12 14 15 15 15 15 15 17
5 7 1 5 14 14 5 9 8 5 0 0 4 4 1 9 14 18 16 15 12 9 7 7 9 13 19 22 20 16 14 12 11 10 9 11 11 12 12 13 13 14 14 13
4 5 2 7 4 2 7 6 4 1 5 5 5 4 5 4 5 7 13 15 13 10 12 12 12 14 17 20 20 17 14 13 10 8 8 9 8 9 10 11 12 13 13 14
1 1 5 4 5 1 2 1 3 4 4 4 2 5 5 6 8 8 7 9 14 15 15 17 21 23 27 26 24 21 16 14 10 7 8 8 7 7 7 10 11 12 12 12
3 2 3 2 5 3 6 4 5 3 4 1 3 5 5 5 7 11 11 12 16 16 16 15 20 20 21 22 23 20 19 14 12 11 11 11 9 8 8 10 10 10 12 13
1 1 3 4 3 6 7 4 1 5 1 5 4 4 4 4 4 9 10 11 11 12 12 13 17 19 19 19 18 21 18 17 17 16 13 13 11 8 10 9 9 10 10 13
3 2 3 2 2 2 1 3 5 3 1 5 4 4 9 4 8 8 9 13 11 13 16 13 12 17 20 20 20 18 22 22 19 14 11 10 9 9 9 9 8 11 11 13
3 3 3 6 9 10 6 10 13 13 7 6 5 6 9 9 7 6 5 5 11 13 14 15 16 16 22 21 20 22 22 20 15 12 10 10 10 9 9 8 10 12 14 14
2 5 4 4 5 6 10 12 10 12 11 6 8 9 3 6 3 2 4 10 14 16 17 16 14 19 20 22 22 25 22 18 13 12 12 11 11 10 11 13 13 13 17 17
3 4 2 5 4 6 8 13 13 8 6 6 6 10 4 3 4 2 3 6 13 17 15 15 14 19 22 24 27 25 21 18 16 15 13 14 14 14 15 15 15 15 18 18
5 5 2 2 3 5 7 4 4 4 6 7 6 4 9 5 5 3 2 4 6 10 13 12 15 20 23 25 25 23 19 17 18 17 17 15 15 15 15 14 14 15 17 20
6 4 3 2 3 7 15 5 4 1 13 4 6 2 4 6 4 2 2 3 0 7 9 15 22 28 27 27 26 23 21 20 19 18 16 15 15 15 14 14 16 14 16 18
6 3 4 2 6 6 20 4 0 3 10 5 4 2 6 5 2 4 4 3 6 14 20 24 25 28 28 24 23 24 23 21 20 18 17 16 14 15 15 14 15 15 14 17
1 1 5 7 5 7 3 8 6 8 15 5 5 5 6 4 3 3 8 6 9 13 19 22 24 23 25 26 24 23 23 21 20 19 17 15 14 14 13 12 13 17 16 14
5 4 3 1 3 9 4 5 2 3 4 5 7 7 6 5 7 7 7 8 10 14 16 17 19 19 23 24 24 23 22 22 21 19 18 16 14 13 11 15 18 19 16 14
3 7 4 6 5 6 2 3 5 6 8 5 4 3 6 9 7 9 8 9 10 14 14 17 20 21 21 21 22 24 24 23 23 21 19 18 16 15 15 16 17 15 12 14
4 3 4 2 5 7 6 9 6 5 6 4 4 5 9 10 11 9 9 9 10 14 15 17 19 18 17 19 19 22 26 25 24 23 21 19 17 15 14 13 12 13 14 14
5 5 5 5 5 6 0 9 11 7 2 3 4 5 9 11 11 11 9 10 13 15 16 19 18 17 18 20 20 24 26 27 22 21 21 21 18 19 18 17 16 16 14 15
6 6 5 6 7 5 4 3 13 8 8 8 7 4 4 9 12 10 9 14 16 17 18 17 17 18 19 20 23 24 26 26 22 21 21 23 21 17 17 19 18 13 13 11
Wind_Direction
208 162 214 209 201 225 278 221 256 253 267 300 209 245 259 212 324 121 168 153 154 144 143 136 131 126 120 119 107 88 89 80 77 91 88 77 69 64 53 49 44 38 36 29
291 239 235 228 215 222 240 250 260 274 245 289 277 238 247 258 208 199 169 166 162 147 148 143 134 129 129 124 110 102 91 89 80 89 97 103 99 67 61 52 46 35 28 25
207 241 242 229 250 234 228 204 220 233 313 331 295 264 187 248 239 272 179 178 169 161 154 150 137 139 139 129 120 108 96 91 89 94 117 121 106 67 51 47 48 40 29 29
250 242 258 253 251 240 241 199 192 197 90 231 68 287 156 235 259 235 166 171 169 161 152 143 141 149 142 132 122 108 102 91 85 86 89 88 86 81 63 57 48 45 42 33
226 271 241 241 243 218 241 210 146 143 138 186 171 230 50 340 289 246 170 170 167 162 155 156 156 153 141 135 122 108 99 88 83 82 82 86 83 79 72 62 58 53 49 42
235 282 171 244 242 250 152 97 54 55 100 270 167 173 286 230 242 284 169 170 168 162 160 149 149 145 133 131 119 108 95 86 76 73 74 77 77 73 67 61 59 54 50 46
268 250 251 225 270 182 130 106 278 310 156 241 178 213 242 296 318 185 185 183 178 158 143 137 139 138 134 132 121 104 103 97 86 78 76 73 72 70 69 64 58 56 49 45
199 302 200 197 208 186 199 161 163 196 204 249 189 230 186 312 34 52 93 93 107 118 132 145 153 150 140 134 125 119 117 114 99 83 79 72 73 71 68 66 59 59 59 49
225 252 195 189 216 174 190 207 176 157 88 43 231 302 88 49 57 73 75 82 88 81 79 72 107 126 131 130 125 123 119 110 104 90 71 69 62 66 63 68 61 54 53 50
238 289 330 322 118 217 163 168 92 23 179 227 257 215 191 97 100 109 123 122 127 129 128 136 130 140 132 131 130 130 124 119 118 104 77 69 61 60 56 59 59 57 51 42
315 144 301 10 43 99 113 244 35 127 155 177 228 254 189 157 160 170 171 152 156 162 160 172 174 156 151 146 147 144 140 142 138 125 111 104 81 62 64 67 62 62 66 44
0 8 323 244 292 252 64 36 23 84 286 189 130 275 233 184 186 167 186 192 190 178 177 168 157 152 149 150 147 150 152 143 140 132 127 112 92 88 88 91 65 61 65 49
229 311 314 339 338 33 58 79 236 279 95 227 186 255 204 167 163 210 183 207 208 190 161 155 152 159 154 154 156 156 147 134 141 137 126 114 107 101 104 88 66 64 68 58
105 164 177 270 326 262 258 279 269 246 199 273 225 254 294 264 256 268 221 228 185 162 161 155 150 156 155 153 156 155 138 142 143 141 133 123 121 125 103 86 65 73 79 69
154 212 227 256 275 282 258 258 252 254 225 204 249 259 259 278 256 245 260 140 136 149 158 168 164 157 152 146 143 140 144 143 148 143 139 134 134 124 108 97 81 77 82 80
12 217 167 263 267 283 279 263 265 259 252 243 255 265 236 280 234 72 172 151 162 174 177 175 158 152 148 146 139 144 146 145 153 152 144 144 133 128 116 106 96 91 86 85
146 129 106 254 30 326 282 261 242 260 256 249 257 259 266 231 150 111 314 229 181 182 169 167 164 157 150 147 148 145 151 151 149 146 141 141 139 127 120 111 107 97 90 88
148 128 134 240 104 257 246 331 304 247 260 270 289 245 254 219 128 104 323 275 184 169 162 160 146 132 137 143 149 150 152 151 146 141 140 141 138 135 132 133 121 107 94 84
177 138 159 220 220 297 293 280 169 272 288 270 263 326 101 130 131 309 0 342 103 130 118 126 133 137 140 147 153 153 151 148 148 143 144 146 147 143 145 146 148 122 102 89
209 161 169 148 236 241 271 211 238 78 284 222 215 133 146 166 43 262 169 104 84 109 128 134 134 136 142 148 158 153 150 149 144 148 149 147 149 150 150 144 150 145 111 91
124 352 198 239 237 267 226 234 246 259 268 170 155 178 187 208 211 130 125 122 111 124 130 133 136 137 144 157 161 150 151 150 149 145 145 150 156 154 149 153 153 154 122 98
189 187 199 201 168 259 343 329 172 257 283 225 225 216 182 136 131 138 131 130 133 128 126 133 127 131 148 158 160 150 151 151 151 152 153 152 152 153 148 153 134 136 128 107
223 184 193 184 218 228 199 190 273 230 228 225 219 155 142 144 157 148 153 145 150 139 137 142 136 141 155 166 169 154 157 158 158 159 155 152 153 150 146 145 142 134 122 105
251 182 201 97 233 236 295 276 239 251 228 214 169 145 160 168 155 153 156 156 155 150 149 150 146 150 152 164 169 167 162 164 162 155 151 151 147 147 147 139 140 138 129 111
202 164 209 262 278 289 231 4 295 239 215 169 130 153 161 157 164 163 165 162 160 156 156 162 164 159 159 167 173 170 167 168 163 160 162 158 147 140 132 120 116 110 105 108
179 202 194 230 207 203 225 199 263 259 214 191 153 123 150 161 159 164 166 164 162 160 163 168 169 164 166 167 172 170 172 171 167 162 161 164 158 148 137 127 118 106 109 111
Height
794 807 804 794 791 784 783 791 797 786 774 772 780 779 771 767 768 778 782 787 789 793 797 798 801 800 802 805 804 805 805 807 809 811 811 813 814 814 813 812 809 807 806 804
799 806 781 782 781 784 786 791 793 783 772 774 778 782 773 765 769 767 778 786 788 792 796 797 798 800 804 805 803 803 806 807 808 810 810 812 813 814 813 813 811 809 807 806
799 788 773 779 780 782 781 786 785 786 778 775 777 776 773 764 760 758 765 769 778 783 789 795 796 801 805 805 803 802 807 809 810 811 812 811 811 813 813 813 812 811 810 808
788 777 778 778 780 774 782 769 770 777 788 803 781 791 771 765 765 760 767 773 776 782 788 793 798 803 805 806 806 804 808 811 812 813 812 811 810 810 813 813 813 811 809 808
779 770 777 778 773 767 773 761 769 775 789 792 792 804 769 764 767 763 770 772 775 779 784 791 797 800 804 806 807 806 809 813 815 814 814 814 812 813 814 812 811 810 809 809
775 765 770 769 762 763 760 770 777 784 793 807 792 795 769 774 764 759 764 768 771 776 783 792 799 802 804 806 808 809 811 816 818 818 818 817 817 817 816 814 812 812 810 809
774 769 762 761 769 763 768 782 805 807 811 798 777 790 775 759 756 753 757 760 762 773 784 792 801 804 806 807 808 807 812 819 818 819 819 819 819 818 817 816 814 813 812 811
785 781 758 751 757 767 773 775 802 803 807 793 775 785 776 764 758 747 754 766 777 783 790 796 801 804 805 806 803 808 815 818 818 820 821 821 820 820 820 817 816 816 813 813
775 768 741 741 740 750 766 773 765 785 792 797 786 772 765 762 764 765 769 776 786 792 798 803 807 808 808 807 808 814 819 821 820 824 825 823 824 822 823 818 819 819 816 813
760 767 747 741 737 744 755 756 781 790 792 799 786 776 777 770 770 766 771 777 786 792 793 796 802 805 807 809 810 815 818 820 823 823 825 825 827 825 825 824 820 819 820 817
759 764 761 745 756 758 760 766 766 770 776 790 790 784 766 768 768 765 766 770 776 781 784 783 785 791 795 801 805 809 813 817 822 823 823 824 826 828 828 826 823 822 820 819
764 766 775 759 753 750 756 771 775 790 785 781 789 788 758 761 764 766 763 762 763 768 772 779 788 795 796 799 805 809 812 816 818 821 824 824 826 829 829 825 824 824 821 821
767 785 781 769 757 758 775 780 786 781 785 781 788 778 755 752 759 757 760 762 762 763 772 780 784 790 794 800 806 809 810 811 818 822 823 823 826 832 830 825 824 823 823 821
763 770 774 778 774 775 780 780 776 778 790 779 777 770 759 757 759 753 750 747 754 762 771 778 784 788 793 798 804 808 806 811 815 820 821 824 828 832 829 825 829 824 822 822
768 776 774 770 769 768 775 777 770 771 773 780 770 767 760 755 753 747 746 750 756 763 772 776 777 783 791 797 802 807 809 811 816 818 822 826 829 830 827 828 829 829 823 825
772 780 777 776 769 769 769 764 764 761 759 760 759 758 750 748 747 750 749 751 753 758 766 771 776 783 789 795 800 803 806 811 814 820 823 826 826 829 829 829 830 833 828 828
776 785 788 777 773 774 777 760 758 756 755 754 763 752 748 750 751 756 758 753 750 753 763 770 776 781 787 793 797 802 806 811 815 818 822 824 827 829 830 831 834 834 832 830
781 785 791 786 788 789 760 753 751 751 749 749 751 751 750 751 761 764 766 762 755 759 762 768 775 781 788 794 798 802 808 811 814 818 821 825 826 830 831 834 836 836 834 831
769 782 792 791 786 775 762 751 759 752 750 748 751 746 752 761 762 762 764 762 757 758 763 769 774 780 787 794 797 802 808 811 815 817 821 825 827 830 833 835 836 836 834 833
764 774 789 799 788 807 749 744 743 749 763 745 745 747 753 757 768 766 764 765 765 764 767 769 776 782 789 795 799 804 807 811 814 818 822 824 828 831 833 835 836 835 835 834
777 786 786 780 790 775 752 747 744 764 750 746 747 748 751 756 760 761 765 768 768 769 771 775 778 783 787 794 799 804 807 810 815 818 821 826 829 832 834 834 835 835 835 835
773 778 785 785 784 778 750 747 754 757 749 744 743 742 746 755 759 764 766 770 772 773 777 781 783 787 791 795 799 804 807 811 815 819 824 827 830 832 833 834 835 835 835 835
783 768 780 770 766 752 748 749 750 749 745 741 740 744 749 755 759 763 767 770 775 775 780 783 784 789 794 797 800 803 807 812 816 821 825 827 830 831 833 834 835 835 836 835
759 754 763 760 748 747 747 746 745 744 741 741 739 744 748 752 756 761 766 769 773 776 780 784 787 790 794 797 801 804 808 813 817 821 824 827 830 831 833 833 834 834 835 836
764 755 754 757 748 745 743 746 746 741 740 742 742 743 746 750 755 759 764 767 770 774 779 783 786 789 793 797 801 805 808 813 817 821 824 827 830 831 832 833 835 835 836 836
751 750 755 751 739 739 740 736 739 737 737 739 741 745 748 749 753 758 762 764 769 773 777 782 785 788 792 796 800 805 808 812 816 819 823 826 829 832 834 834 835 839 839 838